Location: Chassagnes
(44.4047°N, 4.1657°E)
Time: 11:28:56
(UTC+00:00)

CZ-4 R/B - Pass Details

Date: 27 October 2020
Orbit: 531 x 599 km, 97.7° (Epoch: 23 November)

Event Time Altitude Azimuth Distance (km) Brightness Sun altitude
Rises 17:22:55 0° 135° (SE) 2,704 4.5 -8.4°
Reaches altitude 10° 17:25:20 10° 121° (ESE) 1,806 3.5 -8.8°
Maximum altitude 17:28:28 24° 68° (ENE) 1,155 2.4 -9.4°
Drops below altitude 10° 17:31:35 10° 14° (NNE) 1,798 3.7 -9.9°
Sets 17:33:59 0° 0° (N) 2,690 4.8 -10.3°
